Highgate, VT

12:27 AM EST on November 12, 2019 (GMT -0500)
Franklin County State

Weather History for KFSO - September, 2019

Change the Weather History Date:

Thursday, September 19, 2019

  Actual Average (WUND) Record (WUND)
Temperature  
Mean Temperature 55 °F -  
Max Temperature 72 °F - - (-1)
Min Temperature 38 °F - - (-1)
Degree Days  
Heating Degree Days 10    
Growing Degree Days 5 (Base 50)    
Moisture  
Dew Point 44 °F    
Average Humidity 75    
Maximum Humidity 96    
Minimum Humidity 26    
Precipitation  
Precipitation 0.00 in - - ()
Sea Level Pressure  
Sea Level Pressure 30.30 in    
Wind  
Wind Speed 3 mph (SSE)    
Max Wind Speed 8 mph    
Max Gust Speed -    
Visibility 10 miles    
Events      
Averages and records for this station are not official NWS values.
T = Trace of Precipitation, MM = Missing Value Source: NWS Daily Summary

Daily Weather History Graph

Daily Weather History Graph

Search for Another Location

Airport or City:

Astronomy

Sep. 19, 2019 Rise Set
Actual Time 6:35 AM EDT 6:56 PM EDT
Civil Twilight 6:06 AM EDT 7:25 PM EDT
Nautical Twilight 5:31 AM EDT 7:59 PM EDT
Astronomical Twilight 4:55 AM EDT 8:35 PM EDT
Moon 9:50 PM EDT (9/19) 11:48 AM EDT (9/19)
Length of Visible Light 13h 19m
Length of Day
12h 20m
Waning Gibbous, 74% of the Moon is Illuminated
Sep 19
Waning Gibbous
Sep 21
Last Quarter
Sep 28
New
Oct 5
First Quarter
Oct 13
Full

Hourly Weather History & Observations

Time (EDT) Temp. Windchill Dew Point Humidity Pressure Visibility Wind Dir Wind Speed Gust Speed Precip Events Conditions
12:15 AM 45.7 °F 44.4 °F 42.8 °F 90% 30.33 in 10.0 mi SE 3.5 mph - N/A   Clear
12:35 AM 45.3 °F 43.0 °F 42.6 °F 90% 30.33 in 10.0 mi SE 4.6 mph - N/A   Clear
12:55 AM 43.7 °F 42.1 °F 41.4 °F 91% 30.33 in 10.0 mi SE 3.5 mph - N/A   Clear
1:15 AM 43.0 °F 40.3 °F 41.0 °F 93% 30.34 in 10.0 mi SE 4.6 mph - N/A   Clear
1:35 AM 43.3 °F 41.7 °F 42.1 °F 95% 30.34 in 10.0 mi SE 3.5 mph - N/A   Clear
1:55 AM 42.4 °F 40.7 °F 40.6 °F 93% 30.33 in 10.0 mi SE 3.5 mph - N/A   Clear
2:15 AM 42.3 °F 40.5 °F 41.0 °F 95% 30.33 in 10.0 mi SSE 3.5 mph - N/A   Clear
2:36 AM 42.1 °F - 40.8 °F 95% 30.33 in 10.0 mi Calm Calm - N/A   Clear
2:55 AM 41.2 °F - 40.1 °F 96% 30.33 in 10.0 mi Calm Calm - N/A   Clear
3:16 AM 41.0 °F 37.1 °F 39.9 °F 96% 30.33 in 10.0 mi SE 5.8 mph - N/A   Clear
3:35 AM 41.4 °F 38.4 °F 40.3 °F 96% 30.33 in 10.0 mi SE 4.6 mph - N/A   Clear
3:55 AM 41.0 °F - 39.7 °F 95% 30.32 in 10.0 mi Calm Calm - N/A   Clear
4:15 AM 40.6 °F - 39.4 °F 95% 30.33 in 10.0 mi Calm Calm - N/A   Clear
4:36 AM 39.9 °F 36.7 °F 38.8 °F 96% 30.33 in 10.0 mi SE 4.6 mph - N/A   Clear
4:55 AM 40.5 °F 38.4 °F 39.4 °F 96% 30.33 in 10.0 mi SE 3.5 mph - N/A   Clear
5:15 AM 39.7 °F - 38.5 °F 95% 30.33 in 10.0 mi Calm Calm - N/A   Clear
5:36 AM 39.4 °F 35.2 °F 38.1 °F 95% 30.32 in 10.0 mi SE 5.8 mph - N/A   Clear
5:55 AM 39.2 °F 37.0 °F 37.9 °F 95% 30.33 in 10.0 mi SE 3.5 mph - N/A   Clear
6:15 AM 39.2 °F 37.0 °F 38.1 °F 96% 30.33 in 10.0 mi SE 3.5 mph - N/A   Clear
6:36 AM 38.7 °F - 37.6 °F 96% 30.35 in 10.0 mi Calm Calm - N/A   Clear
6:55 AM 39.4 °F - 38.3 °F 96% 30.35 in 10.0 mi Calm Calm - N/A   Clear
7:15 AM 39.4 °F - 38.3 °F 96% 30.35 in 10.0 mi Calm Calm - N/A   Clear
7:35 AM 41.4 °F 37.6 °F 40.1 °F 95% 30.34 in 10.0 mi SE 5.8 mph - N/A   Clear
7:56 AM 42.8 °F 41.1 °F 41.5 °F 95% 30.35 in 10.0 mi SE 3.5 mph - N/A   Clear
8:15 AM 44.1 °F 42.5 °F 42.6 °F 95% 30.35 in 10.0 mi SE 3.5 mph - N/A   Clear
8:35 AM 46.9 °F - 43.5 °F 88% 30.34 in 10.0 mi SE 4.6 mph - N/A   Clear
8:56 AM 49.5 °F - 43.7 °F 81% 30.35 in 10.0 mi SSE 3.5 mph - N/A   Clear
9:15 AM 51.3 °F - 44.8 °F 78% 30.35 in 10.0 mi SSE 5.8 mph - N/A   Clear
9:36 AM 54.5 °F - 45.7 °F 72% 30.35 in 10.0 mi South 6.9 mph - N/A   Clear
9:55 AM 56.3 °F - 46.0 °F 68% 30.35 in 10.0 mi SSW 8.1 mph - N/A   Clear
10:15 AM 57.7 °F - 46.8 °F 67% 30.35 in 10.0 mi SSW 3.5 mph - N/A   Clear
10:35 AM 59.0 °F - 46.9 °F 64% 30.34 in 10.0 mi South 4.6 mph - N/A   Clear
10:55 AM 60.6 °F - 47.1 °F 61% 30.34 in 10.0 mi South 6.9 mph - N/A   Clear
11:15 AM 61.9 °F - 47.7 °F 60% 30.34 in 10.0 mi SW 4.6 mph - N/A   Clear
11:35 AM 63.0 °F - 45.5 °F 53% 30.34 in 10.0 mi SW 4.6 mph - N/A   Clear
11:56 AM 64.8 °F - 46.0 °F 51% 30.33 in 10.0 mi South 4.6 mph - N/A   Clear
12:15 PM 65.7 °F - 43.7 °F 45% 30.33 in 10.0 mi SSW 4.6 mph - N/A   Clear
12:36 PM 66.9 °F - 43.3 °F 42% 30.32 in 10.0 mi SW 4.6 mph - N/A   Clear
12:55 PM 67.6 °F - 42.1 °F 39% 30.32 in 10.0 mi SSW 3.5 mph - N/A   Clear
1:16 PM 68.9 °F - 41.9 °F 37% 30.30 in 10.0 mi Calm Calm - N/A   Clear
1:36 PM 69.8 °F - 41.9 °F 36% 30.30 in 10.0 mi SSW 4.6 mph - N/A   Clear
2:16 PM 71.1 °F - 40.8 °F 33% 30.29 in 10.0 mi SSW 3.5 mph - N/A   Clear
2:35 PM 71.2 °F - 43.0 °F 36% 30.29 in 10.0 mi Calm Calm - N/A   Clear
2:55 PM 71.6 °F - 48.2 °F 43% 30.29 in 10.0 mi SW 5.8 mph - N/A   Clear
3:35 PM 71.8 °F - 47.7 °F 42% 30.29 in 10.0 mi West 4.6 mph - N/A   Clear
3:56 PM 71.6 °F - 41.5 °F 34% 30.29 in 10.0 mi WNW 3.5 mph - N/A   Clear
4:16 PM 71.8 °F - 38.5 °F 30% 30.29 in 10.0 mi Calm Calm - N/A   Clear
4:35 PM 72.3 °F - 35.6 °F 26% 30.28 in 10.0 mi Calm Calm - N/A   Clear
4:56 PM 72.3 °F - 39.7 °F 31% 30.27 in 10.0 mi Calm Calm - N/A   Clear
5:15 PM 71.8 °F - 41.4 °F 33% 30.27 in 10.0 mi Calm Calm - N/A   Clear
5:55 PM 69.6 °F - 50.2 °F 50% 30.26 in 10.0 mi Calm Calm - N/A   Clear
6:15 PM 66.2 °F - 51.6 °F 59% 30.25 in 10.0 mi Calm Calm - N/A   Clear
6:35 PM 63.3 °F - 52.3 °F 67% 30.26 in 10.0 mi Calm Calm - N/A   Clear
6:55 PM 60.8 °F - 52.2 °F 73% 30.26 in 10.0 mi Calm Calm - N/A   Clear
7:16 PM 58.1 °F - 50.7 °F 76% 30.25 in 10.0 mi Calm Calm - N/A   Clear
7:35 PM 58.1 °F - 52.3 °F 81% 30.26 in 10.0 mi Calm Calm - N/A   Clear
7:55 PM 56.1 °F - 53.1 °F 89% 30.26 in 10.0 mi Calm Calm - N/A   Clear
8:16 PM 54.5 °F - 52.3 °F 92% 30.26 in 10.0 mi Calm Calm - N/A   Clear
8:36 PM 53.2 °F - 51.8 °F 95% 30.26 in 10.0 mi Calm Calm - N/A   Clear
8:56 PM 53.2 °F - 52.0 °F 95% 30.25 in 10.0 mi Calm Calm - N/A   Clear
9:15 PM 52.5 °F - 51.3 °F 95% 30.25 in 10.0 mi Calm Calm - N/A   Clear
9:36 PM 54.0 °F - 51.4 °F 91% 30.24 in 10.0 mi SE 3.5 mph - N/A   Clear
9:55 PM 53.8 °F - 50.2 °F 88% 30.23 in 10.0 mi SE 3.5 mph - N/A   Clear
10:15 PM 53.6 °F - 48.9 °F 84% 30.23 in 10.0 mi SE 3.5 mph - N/A   Clear
10:36 PM 53.1 °F - 48.2 °F 84% 30.22 in 10.0 mi SE 3.5 mph - N/A   Clear
10:55 PM 52.3 °F - 47.8 °F 85% 30.23 in 10.0 mi Calm Calm - N/A   Clear
11:16 PM 51.8 °F - 47.5 °F 85% 30.23 in 10.0 mi SSE 3.5 mph - N/A   Clear
11:35 PM 51.8 °F - 48.2 °F 88% 30.23 in 10.0 mi SE 4.6 mph - N/A   Clear
11:56 PM 51.3 °F - 48.2 °F 89% 30.22 in 10.0 mi SE 4.6 mph - N/A   Clear